Regional Weather Roundup
Issued by NWS Sioux Falls, SD

Home | Current Version | Previous Version | Graphics & Text | Print | Product List | Glossary Off
Versions: 1 2 3 4 5 6 7 8 9 10 11 12 13 14 15 16 17 18 19 20 21 22 23 24 25 26 27 28 29 30 31 32 33 34 35 36 37 38 39 40 41 42 43 44 45 46 47 48 49 50

000
ASUS43 KFSD 161902
RWRFSD

WEATHER ROUNDUP FOR SE SOUTH DAKOTA/SW MINNESOTA/NW IOWA
NATIONAL WEATHER SERVICE SIOUX FALLS SD
100 PM CST MON JAN 16 2017

NOTE: "FAIR" INDICATES FEW OR NO CLOUDS BELOW 12,000 FEET WITH NO
SIGNIFICANT WEATHER AND OR OBSTRUCTIONS TO VISIBILITY.


SDZ038>040-050-052>070-162000-
SOUTHEAST SOUTH DAKOTA

CITY           SKY/WX    TMP DP  RH WIND       PRES   REMARKS
BROOKINGS      CLOUDY    28  19  69 N3        30.01F
CHAMBERLAIN    CLOUDY    24  17  73 W8        30.06F WCI  15
HURON          CLOUDY    19  12  74 N5        30.06F WCI  12
MADISON          N/A     27  27 100 N7          N/A  WCI  19
MITCHELL       CLOUDY    26  20  77 NW9       30.05F WCI  17
SIOUX FALLS    CLOUDY    30  23  75 N7        30.01F WCI  23
WINNER         FAIR      29  17  61 NW16      30.05F WCI  17
YANKTON        CLOUDY    30  27  86 CALM      30.02S
$$

MNZ071-072-080-081-089-090-097-098-162000-
SOUTHWEST MINNESOTA

CITY           SKY/WX    TMP DP  RH WIND       PRES   REMARKS
FAIRMONT       CLOUDY    30  28  92 NE8       30.02F FOG     WCI  22
JACKSON        FOG       28  28 100 NE10      30.01F VSB 1/4 WCI  19
LUVERNE        CLOUDY    30  23  74 NE8       30.01F WCI  23
MARSHALL       CLOUDY    34  21  59 CALM      30.05F
MONTEVIDEO     CLOUDY    28  19  69 CALM      30.08F
PIPESTONE      CLOUDY    32  25  74 NE5       30.00F WCI  27
REDWOOD FALLS  CLOUDY    29  23  78 SE3       30.05F
TRACY          CLOUDY    31  24  76 CALM      30.03F
WINDOM         CLOUDY    30  28  93 NE7       30.02F FOG     WCI  23
WORTHINGTON    CLOUDY    29  27  92 NE12      30.00F FOG     WCI  19
$$

IAZ001>003-012>014-020>022-031-032-NEZ013-014-SDZ071-162000-
NORTHWEST IOWA

CITY           SKY/WX    TMP DP  RH WIND       PRES   REMARKS
CHEROKEE       MIX PCPN  32  32 100 N7        29.97F WCI  26
DENISON        LGT RAIN  32  32 100 NE8       29.91F WCI  25
ESTHERVILLE    FOG       29  29 100 NE12      30.00F VSB 1   WCI  19
LE MARS        LGT RAIN  32  32 100 NE10      29.99F VSB 1   WCI  24
ORANGE CITY    MIX PCPN  30  30 100 NE6       29.98F WCI  24
SHELDON        MIX PCPN  30  30 100 NE8       29.98F WCI  23
SIOUX CITY     LGT RAIN  34  32  92 N12       29.98F FOG     WCI  25
SPENCER        FRZ RAIN  31  30  96 NE13      30.00F VSB 3/4 WCI  21
STORM LAKE     LGT RAIN  32  30  93 NE13      29.95F WCI  22
$$

ABBREVIATIONS USED IN REMARKS
   TC - TEMPERATURE IN CELSIUS
  WCI - WIND CHILL INDEX
   HX - HEAT INDEX
  VSB - VISIBILITY





USA.gov is the U.S. government's official web portal to all federal, state and local government web resources and services.